Back to catalog

FENGYUN 1C DEB

AlivePO
NORAD 29895·DEBRIS·🇨🇳 China

Launched May 10, 1999 from Taiyuan Satellite Launch Center

Loading…

Next Passes (next 24 hours)

TLE

FreshSource: Space-Track

Epoch: Sep 14, 2026, 09:00 UTC

1 29895U 99025GR  26257.37503310  .00002607  00000-0  98072-3 0  9996
2 29895  99.9080  38.5472 0293590 310.5849  72.3805 14.11457982994095

Track FENGYUN 1C DEB in real time with AllMySat

Download on the App Store